When you browse on this site, cookies collect data to enhance your experience and personalize the content and advertising you see.
Visit our Privacy Policy to learn more. By continuing to use the site, you agree to this use of cookies and data.
  • In United Kingdom
  • List of Countries
  • For 7 days
  • Water Temperature
  • Satellite Maps
  • Weather Map
  • Weather Widgets
  • user-avatar
    Login

    Hourly Weather Porto Alegre

    Today, 21 November, Wednesday

    Time Temperature Precipitation Wind Pressure Humidity
    00:00 +18°C° 0 mm 2 mps 760 mmHg 81%
    01:00 +17°C° 0 mm 2 mps 760 mmHg 83%
    02:00 +17°C° 0 mm 2 mps 760 mmHg 84%
    03:00 +18°C° 0 mm 1 mps 760 mmHg 84%
    04:00 +18°C° 0 mm 1 mps 760 mmHg 84%
    05:00 +18°C° 0 mm 1 mps 760 mmHg 84%
    06:00 +18°C° 0 mm 1 mps 760 mmHg 84%
    07:00 +21°C° 0 mm 1 mps 760 mmHg 74%
    08:00 +24°C° 0 mm 1 mps 760 mmHg 63%
    09:00 +27°C° 0 mm 1 mps 760 mmHg 53%
    10:00 +29°C° 0 mm 1 mps 760 mmHg 47%
    11:00 +32°C° 0 mm 1 mps 759 mmHg 41%
    12:00 +34°C° 0 mm 1 mps 759 mmHg 35%
    13:00 +35°C° 0 mm 2 mps 759 mmHg 34%
    14:00 +35°C° 0 mm 2 mps 758 mmHg 34%
    15:00 +35°C° 0 mm 3 mps 758 mmHg 33%
    16:00 +33°C° 0 mm 3 mps 757 mmHg 40%
    17:00 +30°C° 0 mm 3 mps 757 mmHg 47%
    18:00 +29°C° 0 mm 4 mps 756 mmHg 54%
    19:00 +27°C° 0 mm 3 mps 757 mmHg 61%
    20:00 +25°C° 0 mm 3 mps 757 mmHg 68%
    21:00 +22°C° 0 mm 3 mps 757 mmHg 75%
    22:00 +21°C° 0 mm 3 mps 757 mmHg 78%
    23:00 +21°C° 0 mm 3 mps 757 mmHg 80%

    Tomorrow, 22 November, Thursday

    Time Temperature Precipitation Wind Pressure Humidity
    00:00 +20°C° 0 mm 3 mps 757 mmHg 82%
    01:00 +20°C° 0 mm 2 mps 757 mmHg 83%
    02:00 +20°C° 0 mm 2 mps 757 mmHg 84%
    03:00 +19°C° 0 mm 2 mps 756 mmHg 85%
    04:00 +20°C° 0 mm 1 mps 757 mmHg 84%
    05:00 +20°C° 0 mm 1 mps 757 mmHg 83%
    06:00 +21°C° 0 mm 1 mps 757 mmHg 82%
    07:00 +23°C° 0 mm 1 mps 758 mmHg 72%
    08:00 +26°C° 0 mm 2 mps 758 mmHg 61%
    09:00 +28°C° 0 mm 2 mps 758 mmHg 51%
    10:00 +30°C° 0 mm 2 mps 758 mmHg 46%
    11:00 +34°C° 0 mm 2 mps 757 mmHg 41%
    12:00 +35°C° 0 mm 1 mps 757 mmHg 35%
    13:00 +36°C° 0 mm 1 mps 756 mmHg 34%
    14:00 +37°C° 0 mm 2 mps 756 mmHg 33%
    15:00 +38°C° 0 mm 2 mps 755 mmHg 32%
    16:00 +36°C° 0 mm 2 mps 755 mmHg 38%
    17:00 +34°C° 0 mm 3 mps 755 mmHg 45%
    18:00 +31°C° 0 mm 3 mps 755 mmHg 52%
    19:00 +30°C° 0 mm 3 mps 755 mmHg 59%
    20:00 +28°C° 0 mm 3 mps 755 mmHg 66%
    21:00 +26°C° 0 mm 3 mps 756 mmHg 73%
    22:00 +26°C° 0 mm 3 mps 756 mmHg 75%
    23:00 +25°C° 0 mm 2 mps 756 mmHg 78%

    Day after tomorrow, 23 November, Friday

    Time Temperature Precipitation Wind Pressure Humidity
    00:00 +24°C° 0 mm 2 mps 756 mmHg 81%
    01:00 +24°C° 0 mm 2 mps 755 mmHg 82%
    02:00 +24°C° 0 mm 1 mps 755 mmHg 84%
    03:00 +23°C° 0 mm 1 mps 754 mmHg 85%
    04:00 +23°C° 0 mm 1 mps 755 mmHg 84%
    05:00 +23°C° 0 mm 1 mps 755 mmHg 84%
    06:00 +23°C° 0 mm 1 mps 756 mmHg 83%
    07:00 +26°C° 0 mm 1 mps 756 mmHg 73%
    08:00 +28°C° 0 mm 1 mps 756 mmHg 64%
    09:00 +31°C° 0 mm 1 mps 756 mmHg 54%
    10:00 +33°C° 0 mm 1 mps 756 mmHg 49%
    11:00 +35°C° 0 mm 1 mps 756 mmHg 44%
    12:00 +37°C° 0 mm 1 mps 756 mmHg 38%
    13:00 +37°C° 0 mm 2 mps 755 mmHg 39%
    14:00 +37°C° 0 mm 2 mps 754 mmHg 39%
    15:00 +37°C° 0 mm 2 mps 754 mmHg 40%
    16:00 +35°C° 0 mm 3 mps 753 mmHg 46%
    17:00 +33°C° 0 mm 3 mps 753 mmHg 53%
    18:00 +30°C° 0 mm 3 mps 753 mmHg 60%
    19:00 +29°C° 0 mm 3 mps 754 mmHg 63%
    20:00 +28°C° 0 mm 3 mps 754 mmHg 67%
    21:00 +27°C° 0 mm 2 mps 754 mmHg 70%
    22:00 +26°C° 0 mm 2 mps 754 mmHg 72%
    23:00 +26°C° 0 mm 2 mps 754 mmHg 75%

    24 November, Saturday

    Time Temperature Precipitation Wind Pressure Humidity
    00:00 +25°C° 0 mm 1 mps 754 mmHg 77%
    01:00 +25°C° 0.1 mm 1 mps 754 mmHg 79%
    02:00 +25°C° 0.1 mm 1 mps 754 mmHg 81%
    03:00 +24°C° 0.1 mm 1 mps 753 mmHg 83%
    04:00 +24°C° 0.2 mm 1 mps 754 mmHg 85%
    05:00 +24°C° 0.2 mm 1 mps 754 mmHg 86%
    06:00 +24°C° 0.2 mm 1 mps 754 mmHg 88%
    07:00 +25°C° 0.1 mm 1 mps 754 mmHg 84%
    08:00 +26°C° 0.1 mm 1 mps 755 mmHg 80%
    09:00 +27°C° 0.1 mm 1 mps 755 mmHg 76%
    10:00 +29°C° 0 mm 1 mps 755 mmHg 68%
    11:00 +31°C° 0 mm 1 mps 754 mmHg 59%
    12:00 +33°C° 0 mm 1 mps 754 mmHg 51%
    13:00 +33°C° 0.2 mm 1 mps 753 mmHg 50%
    14:00 +34°C° 0.2 mm 2 mps 753 mmHg 48%
    15:00 +34°C° 0.2 mm 3 mps 752 mmHg 47%
    16:00 +33°C° 0.8 mm 3 mps 752 mmHg 54%
    17:00 +30°C° 0.8 mm 3 mps 752 mmHg 60%
    18:00 +29°C° 0.8 mm 3 mps 752 mmHg 67%
    19:00 +28°C° 0.5 mm 3 mps 753 mmHg 71%
    20:00 +27°C° 0.5 mm 3 mps 753 mmHg 76%
    21:00 +25°C° 0.5 mm 3 mps 754 mmHg 80%
    22:00 +25°C° 0 mm 3 mps 754 mmHg 83%
    23:00 +24°C° 0 mm 2 mps 754 mmHg 85%

    25 November, Sunday

    Time Temperature Precipitation Wind Pressure Humidity
    00:00 +24°C° 0 mm 2 mps 754 mmHg 87%
    01:00 +23°C° 0 mm 2 mps 754 mmHg 89%
    02:00 +23°C° 0 mm 2 mps 753 mmHg 91%
    03:00 +23°C° 0 mm 2 mps 753 mmHg 92%
    04:00 +23°C° 0 mm 2 mps 753 mmHg 92%
    05:00 +22°C° 0 mm 3 mps 754 mmHg 91%
    06:00 +22°C° 0 mm 3 mps 754 mmHg 91%
    07:00 +24°C° 0.1 mm 3 mps 754 mmHg 88%
    08:00 +25°C° 0.1 mm 4 mps 755 mmHg 85%
    09:00 +25°C° 0.1 mm 4 mps 755 mmHg 82%
    10:00 +26°C° 0.6 mm 4 mps 755 mmHg 79%
    11:00 +27°C° 0.6 mm 5 mps 755 mmHg 76%
    12:00 +27°C° 0.6 mm 5 mps 755 mmHg 73%
    13:00 +27°C° 0.4 mm 5 mps 755 mmHg 73%
    14:00 +26°C° 0.4 mm 5 mps 755 mmHg 73%
    15:00 +26°C° 0.4 mm 5 mps 755 mmHg 73%
    16:00 +25°C° 0.1 mm 5 mps 755 mmHg 73%
    17:00 +25°C° 0.1 mm 5 mps 756 mmHg 73%
    18:00 +23°C° 0.1 mm 5 mps 756 mmHg 73%
    19:00 +22°C° 0 mm 4 mps 757 mmHg 75%
    20:00 +21°C° 0 mm 4 mps 757 mmHg 77%
    21:00 +20°C° 0 mm 3 mps 758 mmHg 79%
    22:00 +19°C° 0 mm 3 mps 758 mmHg 80%
    23:00 +19°C° 0 mm 3 mps 758 mmHg 81%

    26 November, Monday

    Time Temperature Precipitation Wind Pressure Humidity
    00:00 +18°C° 0 mm 2 mps 758 mmHg 81%
    01:00 +18°C° 0 mm 2 mps 757 mmHg 80%
    02:00 +18°C° 0 mm 2 mps 757 mmHg 79%
    03:00 +18°C° 0 mm 2 mps 757 mmHg 78%
    04:00 +18°C° 0 mm 2 mps 757 mmHg 78%
    05:00 +18°C° 0 mm 2 mps 758 mmHg 78%
    06:00 +18°C° 0 mm 2 mps 758 mmHg 78%
    07:00 +19°C° 0 mm 2 mps 759 mmHg 74%
    08:00 +20°C° 0 mm 3 mps 759 mmHg 69%
    09:00 +21°C° 0 mm 3 mps 760 mmHg 65%
    10:00 +22°C° 0 mm 3 mps 759 mmHg 61%
    11:00 +24°C° 0 mm 3 mps 759 mmHg 56%
    12:00 +25°C° 0 mm 4 mps 759 mmHg 52%
    13:00 +25°C° 0 mm 4 mps 759 mmHg 53%
    14:00 +25°C° 0 mm 4 mps 759 mmHg 54%
    15:00 +25°C° 0 mm 5 mps 758 mmHg 54%
    16:00 +23°C° 0 mm 5 mps 758 mmHg 57%
    17:00 +23°C° 0 mm 5 mps 758 mmHg 59%
    18:00 +22°C° 0 mm 4 mps 758 mmHg 62%
    19:00 +21°C° 0 mm 4 mps 759 mmHg 67%
    20:00 +19°C° 0 mm 4 mps 759 mmHg 72%
    21:00 +18°C° 0 mm 3 mps 760 mmHg 77%
    22:00 +18°C° 0 mm 3 mps 760 mmHg 78%
    23:00 +18°C° 0 mm 3 mps 759 mmHg 80%
    Show more